• MPC Preparation (Info)

  • MPEC 2024-D04 : 2024 CY6

    The following Minor Planet Electronic Circular may be linked-to from your own Web pages, but must not otherwise be redistributed electronically.

    A form allowing access to any MPEC is at the bottom of this page.


    Read MPEC 2024-D03 Read MPEC 2024-D05


    M.P.E.C. 2024-D04                             Issued 2024 February 16, 11:16 UT
    
         The Minor Planet Electronic Circulars contain information on unusual
             minor planets, routine data on comets and natural satellites,
             and occasional editorial announcements.  They are published
        on behalf of Division F of the International Astronomical Union by the
              Minor Planet Center, Smithsonian Astrophysical Observatory,
                              Cambridge, MA 02138, U.S.A.
    			  
                 Prepared using the Tamkin Foundation Computer Network
    
                                  MPC@CFA.HARVARD.EDU
                URL https://www.minorplanetcenter.net/    ISSN 1523-6714
    
                                    2024 CY6                                 
    
    
    Observations:
         K24C06Y* C2024 02 13.63261712 50 58.743+23 06 30.46         22.01wXED004F52
         K24C06Y  C2024 02 13.63911212 51 00.110+23 06 30.82         21.79wXED004F52
         K24C06Y  C2024 02 13.64565512 51 01.469+23 06 31.06         21.89wXED004F52
         K24C06Y  C2024 02 13.65217812 51 02.844+23 06 31.43         21.57wXED004F52
         K24C06Y  C2024 02 14.27593712 53 23.109+23 07 03.59         21.3 GVED004H01
         K24C06Y  C2024 02 14.29328812 53 26.870+23 07 05.49         21.8 GVED004H01
         K24C06Y  C2024 02 14.30464712 53 29.317+23 07 06.57         21.9 GVED004H01
         K24C06Y  C2024 02 14.30993012 53 30.453+23 07 07.03         21.6 GVED004H01
         K24C06Y  C2024 02 14.50046712 54 12.485+23 07 26.11         21.80GVED004F52
         K24C06Y  C2024 02 14.50128812 54 12.659+23 07 26.04         21.62GVED004F52
         K24C06Y  C2024 02 15.36100512 57 25.334+23 07 57.43         21.3 GVED004H01
         K24C06Y  C2024 02 15.36740112 57 26.710+23 07 57.87         21.7 GVED004H01
         K24C06Y  C2024 02 15.38209412 57 29.877+23 07 58.73         21.6 GVED004H01
         K24C06Y  C2024 02 15.38644512 57 30.810+23 07 58.88         21.6 GVED004H01
         K24C06Y  C2024 02 16.42509013 01 26.398+23 08 19.23         21.4 GVED004H01
         K24C06Y  C2024 02 16.43129213 01 27.761+23 08 19.29         21.2 GVED004H01
         K24C06Y  C2024 02 16.44275713 01 30.250+23 08 19.46         21.4 GVED004H01
         K24C06Y  C2024 02 16.44818813 01 31.437+23 08 19.37         21.4 GVED004H01
    
    Observer details:
    F52 Pan-STARRS 2, Haleakala.  Observers J. Herman, T. Lowe, P. Minguez, A.
        Schultz, I. Smith.  Measurers K. Chambers, T. de Boer, J. Fairlamb, H.
        Gao, M. Huber, C.-C. Lin, E. Magnier, Y. Ramanjooloo, R. Wainscoat, R.
        Weryk.  1.8-m Ritchey-Chretien + CCD.
    H01 Magdalena Ridge Observatory, Socorro.  Observers W. H. Ryan, E. V. Ryan.
        Measurer W. H. Ryan.  2.4-m f/8.9 Ritchey-Chretien + CCD.
    
    Orbital elements:
    2024 CY6                                                 Earth MOID = 0.1263 AU
    Epoch 2024 Mar. 31.0 TT = JDT 2460400.5                 MPC                     
    M 359.23312              (2000.0)            P               Q                  
    n   0.31603281     Peri.  138.41064     -0.94243918     +0.31936281             
    a   2.1345906      Node    60.46986     -0.32891039     -0.83204181             
    e   0.4807143      Incl.    6.53824     -0.06021918     -0.45355685             
    P   3.12           H   22.48          G   0.15           U   9                  
    Residuals in seconds of arc
    240213 F52  0.0   0.0     240214 H01  0.0   0.0     240215 H01  0.0   0.1+
    240213 F52  0.1+  0.0     240214 H01  0.0   0.1-    240215 H01  0.1-  0.0
    240213 F52  0.1-  0.0     240214 F52  0.0   0.1+    240216 H01  0.1-  0.0
    240213 F52  0.0   0.0     240214 F52  0.0   0.1-    240216 H01  0.1+  0.0
    240214 H01  0.1-  0.0     240215 H01  0.1+  0.1-    240216 H01  0.0   0.1+
    240214 H01  0.0   0.1+    240215 H01  0.0   0.0     240216 H01  0.0   0.0
    
    Ephemeris:
    2024 CY6                 a,e,i = 2.13, 0.48, 7                   q = 1.1085
    Date    TT    R. A. (2000) Decl.     Delta      r    Elong.  Phase     V
    2024 01 17    11 25 49.5 +21 42 15   0.5245  1.3830   130.5    32.8    23.2
    ...
    2024 02 01    12 08 23.5 +22 32 21   0.4006  1.2976   134.4    32.8    22.4
    ...
    2024 02 09    12 34 31.2 +22 57 27   0.3463  1.2561   135.2    33.6    22.1
    ...
    2024 02 15    12 56 03.2 +23 07 50   0.3109  1.2274   135.0    34.6    21.8
    2024 02 16    12 59 49.1 +23 08 20   0.3054  1.2228   135.0    34.9    21.8
    2024 02 17    13 03 38.2 +23 08 23   0.3001  1.2183   134.9    35.1    21.7
    ...
    2024 02 23    13 27 39.8 +22 57 22   0.2706  1.1928   133.9    36.7    21.5
    ...
    2024 03 02    14 02 32.4 +22 01 56   0.2379  1.1633   131.8    39.4    21.3
    ...
    2024 03 17    15 13 12.6 +17 15 13   0.1959  1.1239   127.0    45.0    20.9
    
    A. U. Tomatic                (C) Copyright 2024 MPC           M.P.E.C. 2024-D04
    


    Read MPEC 2024-D03 Read MPEC 2024-D05


    MPEC number:

    Enter an MPEC number in one of the following forms:

    • 1997-B01 (the full form)
    • J97B01 (the packed version of the full form)
    • B01 (the abbreviated form)